Location: Buckland
(65.9785°N, 161.1281°W)
Time: 15:58:39
(UTC+00:00)

N. Korean satellite - Visible Passes

Search period start: 23 September 2021 00:00
Search period end: 03 October 2021 00:00
Orbit: 448 x 498 km, 97.3° (Epoch: 23 September)

Date Brightness Start Highest point End Pass type
(mag) Time Alt. Az. Time Alt. Az. Time Alt. Az.
23 Sep 9.4 15:22:30 10° NE 15:25:20 22° E 15:28:10 10° SE visible
24 Sep 9.8 14:55:11 10° NE 14:57:15 15° E 14:59:20 10° ESE visible
26 Sep 9.1 15:32:15 10° NE 15:35:17 26° E 15:38:20 10° SSE visible
27 Sep 9.7 15:04:46 10° NE 15:07:12 17° E 15:09:39 10° SE visible
28 Sep 10.1 14:37:50 10° ENE 14:39:03 11° E 14:40:15 10° E visible
29 Sep 8.8 15:41:56 10° NNE 15:45:08 31° E 15:48:22 10° SSE visible
30 Sep 9.6 15:14:20 10° NE 15:17:04 20° E 15:19:49 10° SE visible
01 Oct 9.9 14:47:04 10° NE 14:48:54 13° E 14:50:45 10° ESE visible
02 Oct 8.4 15:51:33 10° NNE 15:54:54 36° E 15:58:17 10° SSE visible
